Погода Запорожье

Погода Запорожье : погода сейчас, прогноз погоды и архив. Всё, что Вы хотите узнать о погоде Запорожье!

Хотите узнать прогноз погоды в Запорожье? Тогда Вам сюда: Погода в Запорожье

Поиск расширенной информации на нашем сайте:

Другие новости

Новости СМИ2

Главная страница сайта

Новости сайта

03.07.2017

Напоминаем, что на нашем специализированном сайте Метеоцентр.Азия вы можете получить высокодетализированные автоматические прогнозы погоды по пунктам России, СНГ и мира в авиационном формате (включающие направление и скорость ветра, видимость, явления погоды, количество и форму облачности, нижнюю и верхнюю границу облачности).


Погода Запорожье - сегодня

Время (UTC), дата Ветер
(°,м/с) 
Видим.   Явления Облачность Т
(°С)
Тd
(°С)
f(%) Тe
(°С)
Pmin
(гПа)
dP
(гПа)
Po
(мм)
O2
(г/м3)
Тmin Tmax R s Состояние
почвы
12 11.12.17 180 (Ю) 10 км    9/3 1000 м средняя 
[Sc|Ac trans]
+5.7 +2.2 78 +3  1017.7  753  297           
15 11.12.17 160 (Ю) 10 км  в посл. час ливневой дождь  9/9 900 м кучево-дожд. 
[Cb calv]
+6 +3.3 83 +3  1017.1  -0.6  753  296           
18 11.12.17 180 (Ю) 10 км    9/9 330 м 
[Sc]
+6.5 +2.9 78 +4  1017.2  0.2  753  296    +6.5  0.0     
21 11.12.17 170 (Ю) 10 км    9/6 480 м средняя 
[Sc|Ac trans]
+6.3 +4 85 +4  1017.8  0.5  753  296           
00 12.12.17 170 (Ю) 10 км    9/8 400 м средняя 
[Sc|Ac trans]
+5.5 +4.3 92 +3  1017.1  -0.7  753  297           
03 12.12.17 180 (Ю) 10 км    10/10 180 м 
[St]
+6.4 +5 91 +5  1016.7  -0.3  752  295           
06 12.12.17 170 (Ю) 10 км    10/10 120 м 
[St]
+7.1 +5.7 91 +5  1016.2  -0.5  752  294  +5.5        затоплена
водой 
09 12.12.17 180 (Ю) 10 км    9/9 210 м 
[St]
+8.4 +7.6 95 +7  1016  -0.1  752  293        мокрый или
старый снег
50-90% 
12 12.12.17 190 (Ю) 10 км    9/9 400 м 
[Sc]
+9.6 +7.9 89 +8  1015.7  -0.3  752  291           
15 12.12.17 190 (Ю) 10 км    8/5 300 м верхняя 
[Sc|Ci fib]
+8.7 +7.3 91 +7  1016.4  0.7  752  292           
18 12.12.17 190 (Ю) 6000 м  дымка  9/5 300 м средняя 
[Sc|Ac trans]
+6.7 +6.1 96 +5  1016.5  752  295    +9.6       
21 12.12.17 210 (ЮЗ) 5000 м  дымка  10/10 180 м 
[St]
+7.8 +7.1 95 +7  1017.4  0.9  753  294           
00 13.12.17 190 (Ю) 6000 м  дымка  10/10 210 м 
[St]
+7.2 +6.3 94 +6  1017.2  -0.2  753  294          затоплена
водой 
03 13.12.17 160 (Ю) 2000 м  дымка  10/10 100 м 
[St]
+6.8 +6.4 97 +5  1016.7  -0.5  752  295           
06 13.12.17 150 (ЮВ) 5000 м  дымка  10/10 100 м 
[St]
+6.6 +6.2 97 +5  1017.4  0.7  753  295  +6.6         
09 13.12.17 140 (ЮВ) 10 км    10/10 150 м 
[St]
+8 +7.1 94 +6  1016.7  -0.7  752  293        994  мокрый или
старый снег
10-40% 
12 13.12.17 170 (Ю) 10 км    9/9 210 м 
[St]
+8.4 +6.9 90 +7  1015  -1.6  751  292          влажная 
15 13.12.17 160 (Ю) 8000 м  дымка  10/10 240 м 
[St]
+8.3 +7.4 94 +7  1014.8  -0.2  751  292          затоплена
водой 
18 13.12.17 190 (Ю) 6000 м  дымка  8/8 420 м 
[Sc]
+8 +7.2 95 +9  1014  -0.8  750  293    +8.6       
21 13.12.17 140 (ЮВ) 5000 м  дымка  10/10 150 м 
[St]
+7.4 +7 97 +7  1012.9  -1.1  750  293           
00 14.12.17 170 (Ю) 3900 м  дымка  10/10 150 м 
[St]
+7.4 +6.8 96 +6  1012.1  -0.8  749  293           
03 14.12.17 160 (Ю) 0900 м  туман{морось}  ?/? 60 
+7.2 +7.2 100 +6  1011  -1.1  748  292           
06 14.12.17 170 (Ю) 0300 м  слаб. морось{туман}  ?/? 60 
+7.4 +7.4 100 +6  1010.6  -0.4  748  292  +7    0.0     
09 14.12.17 170 (Ю) 0200 м  слаб. морось{туман}  ?/? 60 
+8 +8 100 +6  1010.4  -0.2  748  291           
12 14.12.17 170 (Ю) 1500 м  морось{туман}  10/10 100 м 
[St]
+9 +8.7 98 +8  1009.8  -0.5  747  290      0.7     
Время (UTC), дата Ветер
(°,м/с) 
Видим.   Явления Облачность Т
(°С)
Тd
(°С)
f(%) Тe
(°С)
Pmin
(гПа)
dP
(гПа)
Po
(мм)
O2
(г/м3)
Тmin Tmax R s Состояние
почвы

Для получения пояснительной информации подведите курсор к названию столбца.

ПОГОДА Запорожье - архив

Всё, что Вы хотите узнать о погоде Запорожье - удобно и подробно!

Выберите нужную дату (начиная с 1 января 2015* года) и нажмите кнопку "Найти".
Будут отображены архивные сводки погоды по пункту Запорожье, начиная с указанной даты.


Отображать данные в формате CSV (для использования в таблицах Excel)


Внимание! Наш архив погоды предназначен исключительно для личного некоммерческого использования в познавательных целях. Если Вам необходимы официальные справки о состоянии погоды (для производственных, юридических, коммерческих и т.п. целей), обращайтесь в органы Росгидромета.

*Примечание: данная дата относится к архиву по метеостанциям СССР (Россия, СНГ, Балтия).
Архив по метеостанциям Зарубежной Европы и Азии (кроме Китая) хранится 10 дней, по другим регионам земного шара (Китай, Африка, Америка, Австралия, Океания) - 1 день.

Запорожье - район местоположения метеостанции


Название, широта, долгота, высота метеостанции:
Запорожье 47.8°ш. 35°д. 112 м над ур. моря [Украина]

Дополнительная информация

В oтличие oт бoльшинства пoгoдных сайтoв мы публикуем пoдрoбную метеoинфoрмацию в детальнoм прoфессиoнальнoм фoрмате.

Характеристики температуры и влажнoсти вoздуха измеряются на высoте 2 м в тени вдали oт зданий и деревьев.
Скoрoсть ветра измеряется на высoте 10 м (на урoвне рoста челoвека скoрoсть ветра ниже в 1.5-2 раза). Если метеoстанция нахoдится в гoрoде или в лесу, тo скoрoсть ветра занижена на 2-4 м/с пo сравнению с oткрытым местoм. Скoрoсть ветра над акватoриями крупных рек и oзёр, а также на вершинах хoлмoв на 2-5 м/с выше, чем в oбычных услoвиях.
Атмoсфернoе давление в разных тoчках местнoсти мoжет значительнo oтличаться oт давления на метеoстанции, в зависимoсти oт услoвий рельефа (при пoдъёме на 10 м давление пoнижается примернo на 1 мм рт.ст.).